Home   Weather   Paradise   Past weeks

Flag for USA Past Weather in Paradise, Nevada, USA — Yesterday and Last 2 Weeks

Now
80 °F

Passing clouds.


Feels Like: 79 °F
Forecast: 65 / 83 °F
Wind: 12 mph from Southwest

Location: McCarran International Airport

Current Time: Apr 26, 2017 at 8:27:50 pm

Latest Report: Apr 26, 2017 at 7:56 pm


Visibility: 10 mi

Pressure: 29.56 "Hg (27.47 "Hg at 643m altitude)

Humidity: 17%

Dew Point: 32 °F

Location of ParadiseLocation

Past Weather in Paradise — Graph

°F

Paradise Temperature Yesterday

Maximum temperature yesterday: 79 °F (at 4:56 pm)
Minimum temperature yesterday: 67 °F (at 4:56 am)
Average temperature yesterday: 72 °F

High & Low Weather Summary for the Past Weeks

 TemperatureHumidityPressure
High89 °F (Apr 23, 1:56 pm)48% (Apr 19, 4:56 am)30.13 "Hg (Apr 19, 4:56 am)
Low55 °F (Apr 14, 5:56 am)4% (Apr 12, 6:56 pm)29.51 "Hg (Apr 24, 6:56 pm)
Average73 °F17%29.82 "Hg
* Reported Apr 11 5:56 pm — Apr 26 5:56 pm, Paradise, Weather by CustomWeather, © 2017

Note: Actual official high and low records may vary slightly from our data, if they occured in-between our weather recording intervals... More about our weather records

Advertising

Paradise Weather History for the Previous 24 Hours

Scroll right to see more
 ConditionsComfort  
Time TempWeatherWind HumidityBarometerVisibility
5:56 pm
Wed, Apr 26
85 °FPartly sunny.18 mph13%29.58 "Hg10 mi
4:56 pm85 °FPartly sunny.6 mph12%29.59 "Hg10 mi
3:56 pm86 °FPartly sunny.10 mph11%29.61 "Hg10 mi
2:56 pm83 °FPartly sunny.6 mph11%29.67 "Hg10 mi
1:56 pm82 °FPartly sunny.12 mph11%29.70 "Hg10 mi
12:56 pm79 °FPartly sunny.8 mph12%29.73 "Hg10 mi
11:56 am78 °FBroken clouds.7 mph12%29.78 "Hg10 mi
10:56 am76 °FBroken clouds.6 mph13%29.82 "Hg10 mi
9:56 am71 °FBroken clouds.3 mph14%29.83 "Hg10 mi
8:56 am67 °FScattered clouds.3 mph19%29.83 "Hg10 mi
7:56 am65 °FScattered clouds.3 mph18%29.84 "Hg10 mi
6:56 am60 °FPartly sunny.3 mph20%29.83 "Hg10 mi
5:56 am60 °FPartly sunny.6 mph18%29.81 "Hg10 mi
4:56 am61 °FPassing clouds.3 mph18%29.81 "Hg10 mi
3:56 am60 °FPassing clouds.6 mph19%29.82 "Hg10 mi
2:56 am61 °FPassing clouds.5 mph17%29.82 "Hg10 mi
1:56 am62 °FPassing clouds.3 mph15%29.81 "Hg10 mi
12:56 am64 °FPassing clouds.6 mph14%29.81 "Hg10 mi
11:56 pm
Tue, Apr 25
67 °FPassing clouds.5 mph13%29.81 "Hg10 mi
10:56 pm68 °FPassing clouds.No wind12%29.80 "Hg10 mi
9:56 pm70 °FPassing clouds.7 mph10%29.80 "Hg10 mi
8:56 pm71 °FPassing clouds.14 mph10%29.77 "Hg10 mi
Weather by CustomWeather, © 2017

See weather overviewHow to use our weather pages